Weather History for KIWA - March, 2013

Change the Weather History Date:

Saturday, March 2, 2013

  Actual Average (KPHX) Record (KPHX)
Temperature  
Mean Temperature 62 °F 62 °F  
Max Temperature 80 °F 74 °F 90 °F (1921)
Min Temperature 44 °F 51 °F 30 °F (1971)
Degree Days  
Heating Degree Days 3 4  
Month to date heating degree days 8  
Since 1 July heating degree days 841  
Cooling Degree Days 0 1  
Month to date cooling degree days 2  
Year to date cooling degree days 19  
Growing Degree Days 12 (Base 50)    
Moisture  
Dew Point 31 °F    
Average Humidity 41    
Maximum Humidity 61    
Minimum Humidity 13    
Precipitation  
Precipitation 0.00 in 0.04 in 0.74 in (1970)
Month to date precipitation 0.08  
Year to date precipitation 1.91  
Snow  
Snow 0.00 in - - ()
Month to date snowfall  
Year to date snowfall  
Since 1 July snowfall  
Snow Depth -    
Sea Level Pressure  
Sea Level Pressure 30.20 in    
Wind  
Wind Speed 4 mph (ESE)    
Max Wind Speed 8 mph    
Max Gust Speed -    
Visibility 12 miles    
Events      
T = Trace of Precipitation, MM = Missing Value Source: NWS Daily Summary

Daily Weather History Graph

Daily Weather History Graph

Search for Another Location

Airport or City:

Trip Planner

Search our weather history database for the weather conditions in past years. The results will help you decide how hot, cold, wet, or windy it might be!

Date:

Astronomy

Mar. 02, 2013 Rise Set
Actual Time 6:53 AM MST 6:24 PM MST
Civil Twilight 6:28 AM MST 6:49 PM MST
Nautical Twilight 5:59 AM MST 7:18 PM MST
Astronomical Twilight 5:30 AM MST 7:46 PM MST
Moon 11:48 PM MST (3/2) 9:41 AM MST (3/2)
Length of Visible Light 12h 21m
Length of Day
11h 31m
Waning Gibbous, 73% of the Moon is Illuminated
Mar 2
Waning Gibbous
Mar 4
Last Quarter
Mar 11
New
Mar 19
First Quarter
Mar 27
Full

Hourly Weather History & Observations

Time (MST) Temp. Windchill Dew Point Humidity Pressure Visibility Wind Dir Wind Speed Gust Speed Precip Events Conditions
12:15 AM 51.8 °F - 32.0 °F 47% 30.25 in 10.0 mi ESE 6.9 mph - N/A   Clear
12:35 AM 51.8 °F - 32.0 °F 47% 30.26 in 10.0 mi Calm Calm - N/A   Clear
12:55 AM 51.8 °F - 32.0 °F 47% 30.26 in 10.0 mi ENE 6.9 mph - N/A   Clear
1:15 AM 51.8 °F - 32.0 °F 47% 30.26 in 10.0 mi SSE 3.5 mph - N/A   Clear
1:35 AM 46.4 °F 44.3 °F 32.0 °F 57% 30.26 in 10.0 mi ESE 4.6 mph - N/A   Clear
1:55 AM 46.4 °F 42.9 °F 32.0 °F 57% 30.26 in 10.0 mi SE 6.9 mph - N/A   Clear
2:15 AM 44.6 °F 40.2 °F 32.0 °F 61% 30.26 in 10.0 mi SE 8.1 mph - N/A   Clear
2:35 AM 44.6 °F 40.2 °F 32.0 °F 61% 30.26 in 10.0 mi SE 8.1 mph - N/A   Clear
2:55 AM 46.4 °F 42.9 °F 32.0 °F 57% 30.26 in 10.0 mi SE 6.9 mph - N/A   Clear
3:15 AM 46.4 °F 42.9 °F 32.0 °F 57% 30.26 in 10.0 mi ESE 6.9 mph - N/A   Clear
3:35 AM 46.4 °F 42.9 °F 32.0 °F 57% 30.26 in 10.0 mi SE 6.9 mph - N/A   Clear
3:55 AM 46.4 °F 43.5 °F 32.0 °F 57% 30.26 in 10.0 mi SE 5.8 mph - N/A   Clear
4:15 AM 44.6 °F - 32.0 °F 61% 30.27 in 10.0 mi Calm Calm - N/A   Clear
4:35 AM 44.6 °F 42.2 °F 32.0 °F 61% 30.26 in 10.0 mi ESE 4.6 mph - N/A   Clear
4:55 AM 44.6 °F - 32.0 °F 61% 30.27 in 10.0 mi Calm Calm - N/A   Clear
5:15 AM 44.6 °F 43.1 °F 32.0 °F 61% 30.27 in 10.0 mi ESE 3.5 mph - N/A   Clear
5:47 AM 44.6 °F 41.4 °F 30.2 °F 57% 30.28 in 20.0 mi East 5.8 mph - N/A   Clear
6:47 AM 44.6 °F 41.4 °F 30.2 °F 57% 30.29 in 20.0 mi East 5.8 mph - N/A   Clear
7:47 AM 46.4 °F 42.9 °F 30.2 °F 53% 30.29 in 45.0 mi SE 6.9 mph - N/A   Clear
9:47 AM 62.6 °F - 30.2 °F 30% 30.29 in 45.0 mi WSW 3.5 mph - N/A   Clear
10:47 AM 66.2 °F - 30.2 °F 26% 30.28 in 45.0 mi Calm Calm - N/A   Clear
11:53 AM 73.4 °F - 30.2 °F 20% 30.27 in 45.0 mi WSW 5.8 mph - N/A   Clear
1:47 PM 78.8 °F - 37.4 °F 23% 30.20 in 45.0 mi Calm Calm - N/A   Partly Cloudy
2:47 PM 78.8 °F - 24.8 °F 14% 30.17 in 45.0 mi Calm Calm - N/A   Partly Cloudy
3:47 PM 80.6 °F - 26.6 °F 14% 30.14 in 45.0 mi Calm Calm - N/A   Partly Cloudy
4:47 PM 80.6 °F - 24.8 °F 13% 30.12 in 45.0 mi Calm Calm - N/A   Partly Cloudy
5:47 PM 78.8 °F - 24.8 °F 14% 30.11 in 45.0 mi NW 4.6 mph - N/A   Scattered Clouds
6:47 PM 73.4 °F - 26.6 °F 18% 30.11 in 20.0 mi Calm Calm - N/A   Scattered Clouds
7:47 PM 73.4 °F - 28.4 °F 19% 30.12 in 20.0 mi Calm Calm - N/A   Scattered Clouds
7:55 PM 68.0 °F - 30.2 °F 24% 30.12 in 10.0 mi Calm Calm - N/A   Clear
8:15 PM 66.2 °F - 30.2 °F 26% 30.12 in 10.0 mi Calm Calm - N/A   Clear
8:35 PM 64.4 °F - 28.4 °F 26% 30.12 in 10.0 mi Calm Calm - N/A   Clear
8:47 PM 64.4 °F - 32.0 °F 30% 30.12 in 20.0 mi Calm Calm - N/A   Scattered Clouds
8:55 PM 62.6 °F - 32.0 °F 32% 30.12 in 10.0 mi ESE 4.6 mph - N/A   Clear
9:15 PM 60.8 °F - 32.0 °F 34% 30.12 in 10.0 mi East 5.8 mph - N/A   Clear
9:35 PM 60.8 °F - 32.0 °F 34% 30.11 in 10.0 mi East 5.8 mph - N/A   Clear
9:55 PM 60.8 °F - 32.0 °F 34% 30.12 in 10.0 mi East 3.5 mph - N/A   Clear
10:15 PM 57.2 °F - 33.8 °F 41% 30.12 in 10.0 mi East 5.8 mph - N/A   Clear
10:35 PM 57.2 °F - 33.8 °F 41% 30.11 in 10.0 mi East 8.1 mph - N/A   Clear
10:55 PM 55.4 °F - 33.8 °F 44% 30.11 in 10.0 mi ESE 5.8 mph - N/A   Clear
11:15 PM 53.6 °F - 35.6 °F 51% 30.10 in 10.0 mi ESE 6.9 mph - N/A   Clear
11:35 PM 51.8 °F - 33.8 °F 50% 30.10 in 10.0 mi ESE 5.8 mph - N/A   Clear
11:55 PM 51.8 °F - 35.6 °F 54% 30.10 in 10.0 mi SE 4.6 mph - N/A   Clear